Location: Pardubice
(50.0330°N, 15.7830°E)
Time: 12:47:25
(UTC+01:00)

Altair - Visible Passes

Search period start: 15 February 2026 00:00
Search period end: 25 February 2026 00:00
Orbit: 1502 x 1682 km, 47.2° (Epoch: 14 February)

Date Brightness Start Highest point End Pass type
(mag) Time Alt. Az. Time Alt. Az. Time Alt. Az.
15 Feb 9.4 03:18:31 10° SSE 03:23:37 16° SE 03:28:48 10° E visible
15 Feb 8.3 05:17:43 10° SW 05:26:20 46° SSE 05:35:14 10° E visible
16 Feb 9.3 02:55:13 12° SSE 02:58:35 15° SE 03:03:06 10° E visible
16 Feb 8.3 04:53:17 12° SSW 05:01:12 44° SE 05:09:57 10° E visible
17 Feb 9.3 02:31:48 12° SE 02:33:33 13° SE 02:37:15 10° E visible
17 Feb 8.3 04:29:51 18° SSW 04:36:04 41° SE 04:44:40 10° E visible
17 Feb 7.8 06:30:41 10° WSW 06:39:54 71° SSE 06:49:28 10° E visible
18 Feb 9.4 02:08:16 11° SE 02:08:32 11° ESE 02:11:03 10° ESE visible
18 Feb 8.3 04:06:18 24° SSW 04:10:57 39° SE 04:19:22 10° E visible
18 Feb 7.8 06:05:31 10° WSW 06:14:42 70° SSE 06:24:12 10° E visible
19 Feb 8.4 03:42:41 29° S 03:45:50 36° SE 03:54:04 10° E visible
19 Feb 7.7 05:40:42 11° WSW 05:49:30 68° SSE 05:58:56 10° E visible
20 Feb 8.3 03:18:59 32° SSE 03:20:43 34° SE 03:28:46 10° E visible
20 Feb 7.7 05:17:01 18° WSW 05:24:18 66° SSE 05:33:41 10° E visible
21 Feb 8.4 02:55:13 31° SE 02:55:38 32° SE 03:03:27 10° E visible
21 Feb 7.7 04:53:15 25° SW 04:59:06 64° SSE 05:08:26 10° E visible
22 Feb 8.6 02:31:25 29° SE 02:31:25 29° SE 02:38:07 10° E visible
22 Feb 7.6 04:29:25 33° SW 04:33:55 62° SSE 04:43:11 10° E visible
23 Feb 8.8 02:07:33 25° ESE 02:07:33 25° ESE 02:12:47 10° E visible
23 Feb 7.6 04:05:33 41° SSW 04:08:45 60° SSE 04:17:55 10° E visible
23 Feb 7.6 06:03:48 10° W 06:13:02 76° S 06:22:35 10° E visible
24 Feb 9.0 01:43:39 21° ESE 01:43:39 21° ESE 01:47:25 10° E visible
24 Feb 7.6 03:41:39 49° SSW 03:43:35 57° SSE 03:52:40 10° E visible
24 Feb 7.6 05:39:40 14° W 05:47:49 76° S 05:57:20 10° E visible
